Date,TemperatureHighF,TemperatureAvgF,TemperatureLowF,DewpointHighF,DewpointAvgF,DewpointLowF,HumidityHigh,HumidityAvg,HumidityLow,PressureMaxIn,PressureMinIn,WindSpeedMaxMPH,WindSpeedAvgMPH,GustSpeedMaxMPH,PrecipitationSumIn
2013-1-1,24.6,21.8,19.7,18.4,15.5,12.0,85,76,69,30.22,30.10,9,6,19,0.00
2013-1-2,25.7,23.2,17.5,22.3,18.4,11.5,87,82,77,30.21,30.14,13,8,24,0.00
2013-1-3,29.0,24.9,18.4,25.5,20.9,12.5,95,84,76,30.22,30.09,14,9,23,0.00
2013-1-4,32.3,29.0,25.3,27.3,24.5,20.6,92,83,76,30.22,30.08,24,14,39,0.00
2013-1-5,35.5,30.6,21.9,31.6,26.8,19.7,95,86,70,30.26,29.99,16,9,27,0.00
2013-1-6,35.5,32.8,30.4,33.2,29.8,23.2,95,89,73,30.31,29.89,14,9,27,0.07
2013-1-7,36.8,30.8,25.2,26.1,23.0,18.9,89,73,50,30.35,30.14,21,12,36,0.00
2013-1-8,36.9,31.3,26.2,29.5,26.0,22.9,88,81,73,30.23,30.11,16,10,23,0.00
2013-1-9,42.5,38.0,33.0,34.4,31.1,26.3,85,76,61,30.45,30.01,26,15,48,0.01
2013-1-10,44.4,35.6,29.1,33.1,29.0,26.0,90,78,56,30.55,30.06,18,9,27,0.13
2013-1-11,51.5,45.3,36.0,50.7,44.0,33.5,98,95,90,30.05,29.74,21,14,36,0.45
2013-1-12,54.2,47.3,35.9,48.6,42.4,33.4,93,83,64,29.97,29.75,22,12,36,0.04
2013-1-13,35.7,30.1,23.8,33.3,28.5,19.7,96,94,84,30.15,29.85,18,8,30,0.21
2013-1-14,24.0,21.3,19.7,19.6,16.8,15.3,88,83,75,30.48,30.15,15,8,29,0.00
2013-1-15,29.2,24.4,19.5,20.7,18.3,15.4,85,78,67,30.47,30.18,10,5,15,0.00
2013-1-16,34.1,27.9,20.4,29.6,22.7,16.6,88,81,69,30.18,29.82,27,13,41,0.00
2013-1-17,34.1,26.4,20.6,29.1,18.4,11.1,82,72,64,30.38,30.02,17,8,31,0.00
2013-1-18,39.3,28.1,18.5,30.6,19.7,11.0,85,71,62,30.45,29.93,28,13,47,0.00
2013-1-19,43.5,40.6,37.7,37.2,33.3,24.7,82,75,58,29.93,29.62,26,20,46,0.00
2013-1-20,36.6,16.6,13.9,23.4,12.0,9.3,90,82,55,30.24,29.65,29,10,51,0.00
2013-1-21,16.1,10.1,3.2,11.7,7.0,0.0,89,87,77,30.23,30.08,13,8,24,0.00
2013-1-22,8.1,4.0,-0.5,5.3,0.8,-4.2,88,86,84,30.37,30.22,9,3,15,0.00
2013-1-23,17.0,10.7,3.3,14.8,8.0,0.1,91,89,86,30.37,30.13,11,4,21,0.00
2013-1-24,15.7,10.3,5.7,13.3,7.5,2.7,90,88,87,30.69,30.27,9,3,13,0.00
2013-1-25,21.8,16.7,11.1,19.8,13.9,8.0,92,88,84,30.52,30.02,13,8,22,0.00
2013-1-26,26.6,22.8,19.2,20.8,18.3,15.9,93,83,67,30.48,30.12,9,4,15,0.01
2013-1-27,31.4,24.9,19.4,29.6,21.0,16.4,93,85,76,30.48,30.06,23,11,36,0.00
2013-1-28,43.9,36.5,31.5,43.4,35.5,29.7,98,96,93,30.07,29.86,20,9,31,0.08
2013-1-29,55.0,48.1,33.2,54.7,47.5,31.7,99,98,94,29.98,29.40,18,13,30,0.93
2013-1-30,50.2,38.9,23.6,49.9,38.4,22.4,99,98,95,29.41,29.12,18,9,35,0.46
2013-1-31,23.4,18.0,14.9,22.2,15.8,13.0,95,91,82,29.99,29.42,18,12,37,0.00
2013-2-1,15.6,12.9,9.6,13.7,10.6,7.0,100,90,87,30.31,29.99,13,9,23,0.00
2013-2-2,16.3,13.8,9.9,14.3,9.9,4.4,100,84,74,30.23,30.06,9,6,15,0.00
2013-2-3,18.9,14.3,8.9,16.5,11.1,4.3,90,87,79,30.08,29.94,11,6,20,0.00
2013-2-4,21.7,17.4,14.7,17.2,14.1,10.7,92,87,80,30.07,29.94,10,4,14,0.00
2013-2-5,28.0,20.2,9.8,26.4,17.5,7.2,94,89,81,30.07,29.83,16,9,27,0.00
2013-2-6,31.1,25.4,18.6,22.5,19.9,15.9,90,79,69,30.30,30.08,10,5,16,0.02
2013-2-7,32.1,29.0,26.6,31.0,26.0,21.3,96,89,78,30.25,29.90,15,10,24,0.01
2013-2-8,30.5,26.3,19.6,28.9,23.2,16.4,96,88,74,30.42,29.89,12,7,20,0.00
2013-2-9,29.9,21.3,12.9,22.5,16.9,10.8,91,83,72,30.47,30.23,13,8,19,0.00
2013-2-10,40.9,31.3,20.4,39.6,27.5,17.1,96,86,76,30.23,29.58,22,13,34,0.18
2013-2-11,45.1,34.4,29.1,43.3,30.9,23.8,97,87,75,29.93,29.53,31,20,53,0.00
2013-2-12,29.1,27.5,25.9,24.2,23.2,21.7,87,84,80,30.09,29.94,14,10,28,0.00
2013-2-13,36.4,30.3,23.6,29.6,25.9,21.1,91,84,73,29.96,29.76,11,7,16,0.00
2013-2-14,38.3,32.8,27.6,34.6,30.7,24.5,100,92,81,29.94,29.66,21,12,36,0.02
2013-2-15,27.6,22.9,19.5,24.5,18.1,15.2,91,82,68,30.19,29.95,12,6,23,0.00
2013-2-16,19.7,16.6,11.0,17.5,14.0,8.6,92,89,78,30.17,30.10,10,4,15,0.00
2013-2-17,22.9,14.5,7.1,13.4,8.9,3.7,90,79,64,30.29,30.17,13,6,20,0.00
2013-2-18,44.7,33.1,17.2,41.5,26.1,10.9,95,76,65,30.18,29.44,23,16,36,0.19
2013-2-19,42.2,23.3,15.3,40.6,21.3,13.0,95,92,89,30.04,29.40,22,15,44,0.08
2013-2-20,21.3,18.1,14.6,16.2,13.8,11.5,91,83,76,30.36,30.04,18,11,32,0.00
2013-2-21,25.0,21.5,19.7,20.2,16.8,14.7,89,82,77,30.43,30.20,23,11,34,0.00
2013-2-22,32.0,25.7,20.3,31.0,23.6,16.1,96,92,82,30.20,29.88,25,14,33,0.00
2013-2-23,29.9,27.4,24.7,27.9,24.5,21.7,92,89,76,29.95,29.88,16,10,31,0.00
2013-2-24,35.0,29.8,25.3,28.6,25.4,22.6,92,84,69,30.19,29.93,15,6,23,0.03
2013-2-25,39.5,30.5,23.8,28.1,24.9,21.7,95,80,58,30.26,30.11,13,5,20,0.00
2013-2-26,32.6,30.2,27.3,31.1,26.1,22.2,97,85,73,30.13,29.55,27,12,40,0.05
2013-2-27,34.4,32.1,31.8,33.9,29.3,-99.9,98,95,97,29.65,29.51,7,2,13,0.07
2013-2-28,35.1,32.3,29.4,32.0,29.6,24.9,98,90,82,30.04,29.65,13,9,22,0.00
2013-3-1,29.3,26.2,21.7,24.9,20.0,16.2,85,77,71,30.20,30.04,10,5,16,0.00
2013-3-2,27.1,20.8,14.4,19.2,15.2,11.5,90,79,67,30.20,30.14,13,5,20,0.00
2013-3-3,28.9,21.4,14.2,20.0,15.6,11.6,89,78,64,30.16,30.08,11,4,21,0.00
2013-3-4,31.6,23.0,15.5,20.9,15.9,11.8,88,75,60,30.21,30.12,10,4,12,0.00
2013-3-5,31.7,25.5,19.8,24.3,19.4,13.5,88,77,68,30.16,29.90,23,14,30,0.00
2013-3-6,36.7,31.7,25.9,29.5,27.3,22.8,91,84,74,30.28,29.99,13,6,25,0.00
2013-3-7,34.4,30.6,24.5,29.0,24.8,20.6,92,79,63,30.46,30.27,10,5,16,0.00
2013-3-8,40.7,30.5,21.5,27.4,22.5,18.2,92,73,54,30.56,30.42,7,3,10,0.00
2013-3-9,40.7,35.4,29.1,34.0,27.9,21.8,81,74,68,30.43,29.99,17,12,27,0.00
2013-3-10,50.2,44.7,40.0,44.0,39.8,33.9,95,83,70,29.98,29.72,17,12,26,0.34
2013-3-11,51.9,43.4,33.6,47.7,41.1,32.6,97,92,69,29.73,29.51,20,12,41,0.28
2013-3-12,34.3,30.8,28.0,33.1,27.6,23.9,96,88,75,29.94,29.68,16,10,30,0.00
2013-3-13,29.5,26.0,22.5,26.0,20.2,16.9,93,79,62,30.31,29.94,18,9,30,0.01
2013-3-14,36.2,30.0,23.9,26.3,21.6,18.2,81,71,56,30.34,30.15,12,6,22,0.00
2013-3-15,38.8,34.4,31.5,33.8,31.7,25.4,95,90,81,30.15,29.88,15,7,26,0.05
2013-3-16,34.1,28.5,24.7,32.4,25.0,20.4,95,87,73,30.13,29.79,19,9,27,0.01
2013-3-17,29.2,26.4,23.5,22.5,18.1,12.9,79,71,60,30.32,30.13,17,11,26,0.00
2013-3-18,32.8,27.1,20.8,31.8,24.2,16.8,96,89,78,30.19,29.63,23,14,35,0.01
2013-3-19,32.4,23.1,19.0,27.3,18.5,15.7,100,83,64,30.02,29.66,22,15,37,0.00
2013-3-20,27.7,20.6,15.4,17.3,14.8,13.0,90,78,62,30.05,30.00,17,9,29,0.00
2013-3-21,28.0,22.8,15.3,24.4,19.0,12.9,93,86,77,30.06,29.98,15,7,27,0.01
2013-3-22,32.3,27.9,24.7,25.4,21.5,18.7,92,77,70,30.11,30.05,13,6,23,0.02
2013-3-23,33.3,29.0,24.3,24.9,23.0,20.4,92,78,69,30.20,30.10,8,4,13,0.00
2013-3-24,35.8,30.1,25.7,27.5,23.9,20.4,88,78,63,30.11,29.75,23,12,36,0.00
2013-3-25,37.4,32.8,29.5,28.2,25.8,22.1,83,75,64,30.04,29.70,15,11,29,0.00
2013-3-26,38.0,33.7,29.1,33.9,29.6,26.3,91,85,74,30.23,30.03,13,8,23,0.00
2013-3-27,41.3,35.2,29.8,30.9,27.9,24.9,94,76,57,30.31,30.23,15,9,27,0.00
2013-3-28,46.3,36.9,30.8,30.7,27.3,24.0,88,69,46,30.36,30.31,14,7,25,0.00
2013-3-29,47.0,37.3,29.7,31.9,27.2,23.4,92,69,43,30.35,30.28,12,6,22,0.00
2013-3-30,55.1,40.9,25.2,35.9,29.3,23.5,94,67,38,30.29,29.92,11,6,22,0.00
2013-3-31,48.9,42.3,35.4,41.1,37.1,31.2,96,83,61,29.93,29.70,16,10,31,0.04
2013-4-1,36.4,29.0,26.6,31.7,18.9,15.0,87,66,55,30.17,29.80,18,11,32,0.00
2013-4-2,36.0,30.0,23.9,21.1,18.1,15.7,79,62,46,30.33,30.17,18,8,32,0.00
2013-4-3,44.7,31.9,24.5,22.9,19.6,16.4,80,62,38,30.51,30.32,10,5,19,0.00
2013-4-4,49.9,39.3,26.5,29.5,23.2,18.3,77,54,37,30.41,30.01,19,10,31,0.00
2013-4-5,46.0,38.0,31.9,29.8,25.7,19.5,78,62,38,30.25,30.01,13,8,22,0.00
2013-4-6,57.4,45.9,34.6,44.0,29.6,19.5,73,54,42,30.23,29.68,25,16,38,0.03
2013-4-7,57.5,43.7,38.4,47.9,37.1,31.7,92,78,64,30.05,29.59,30,11,47,0.06
2013-4-8,53.7,40.3,35.5,51.7,37.6,30.7,97,90,77,30.04,29.68,30,13,54,0.36
2013-4-9,46.8,41.7,37.0,46.4,41.1,36.0,99,98,96,30.08,29.89,23,10,48,1.17
2013-4-10,41.1,39.0,36.5,40.3,37.6,33.6,97,95,88,30.04,29.86,29,16,41,0.40
2013-4-11,36.9,35.4,34.4,35.6,34.0,32.3,97,94,84,30.01,29.66,33,24,47,0.88
2013-4-12,40.0,36.3,32.9,37.2,34.5,31.9,97,93,83,29.81,29.60,24,13,34,0.18
2013-4-13,37.5,35.5,34.2,34.6,31.1,27.9,96,84,72,30.02,29.81,20,12,36,0.02
2013-4-14,51.2,39.4,32.7,42.7,34.9,29.1,95,84,69,30.13,29.85,23,10,33,0.09
2013-4-15,62.6,53.8,45.4,55.4,48.4,39.3,96,82,74,29.97,29.82,19,11,33,0.64
2013-4-16,46.7,43.4,39.3,44.3,37.7,34.0,97,81,64,30.30,29.94,13,7,22,0.23
2013-4-17,48.6,44.1,40.0,44.2,38.1,32.7,96,80,66,30.36,29.94,35,15,54,1.06
2013-4-18,61.9,54.9,45.0,60.4,53.7,43.7,99,96,87,30.00,29.41,31,14,45,2.48
2013-4-19,54.2,37.4,32.1,52.5,33.3,28.0,95,85,73,29.81,29.44,32,21,52,0.10
2013-4-20,35.3,31.5,27.4,28.7,22.3,17.6,86,69,50,30.50,29.82,17,9,32,0.01
2013-4-21,49.8,39.0,27.8,33.4,25.9,19.1,75,60,45,30.64,30.44,16,10,25,0.00
2013-4-22,64.3,49.8,34.7,38.7,33.6,29.1,82,57,33,30.43,30.15,16,10,24,0.00
2013-4-23,63.4,49.3,38.8,51.2,41.9,35.0,96,77,52,30.15,29.87,15,10,25,0.39
2013-4-24,42.6,37.2,32.7,37.3,30.7,26.3,96,79,53,30.14,29.89,16,10,31,0.08
2013-4-25,46.6,41.0,33.7,37.5,33.4,29.2,95,75,59,30.37,30.07,20,11,34,0.13
2013-4-26,63.6,49.9,36.4,43.1,36.0,29.4,76,60,41,30.44,30.30,16,10,28,0.00
2013-4-27,69.7,58.5,47.8,47.6,42.0,37.6,74,56,33,30.33,30.08,12,7,21,0.00
2013-4-28,62.7,56.7,52.0,54.6,47.7,38.8,90,72,49,30.07,29.84,12,7,21,0.00
2013-4-29,69.0,58.1,45.2,56.8,51.4,43.9,97,80,59,29.95,29.85,13,6,21,0.01
2013-4-30,77.9,65.6,56.2,63.2,57.4,52.3,91,76,59,29.98,29.86,24,15,34,0.12
2013-5-1,83.4,72.7,61.4,62.5,58.5,55.1,81,63,41,30.18,29.98,15,9,27,0.00
2013-5-2,81.8,67.7,56.7,61.3,56.5,50.9,81,68,46,30.18,30.08,13,7,21,0.00
2013-5-3,78.5,63.7,51.7,59.6,54.1,42.9,94,73,44,30.11,29.98,17,8,28,0.00
2013-5-4,72.5,64.8,57.2,53.2,45.9,39.4,64,51,35,30.08,30.00,19,10,28,0.00
2013-5-5,72.9,62.4,52.2,51.5,44.0,37.9,70,52,33,30.08,30.00,17,10,27,0.00
2013-5-6,72.5,63.3,51.4,46.4,41.6,37.1,67,47,28,30.07,29.98,11,7,19,0.00
2013-5-7,75.5,66.4,54.3,54.9,49.4,42.7,75,55,44,30.07,29.98,11,6,20,0.00
2013-5-8,78.7,67.7,57.9,56.6,51.6,46.4,77,58,42,30.05,29.96,10,4,19,0.00
2013-5-9,79.2,65.3,52.9,56.4,47.5,39.3,85,55,31,29.99,29.89,20,4,34,0.02
2013-5-10,56.8,49.0,44.6,55.3,47.3,43.0,96,94,81,29.95,29.78,17,7,25,0.30
2013-5-11,52.1,44.4,37.0,48.2,41.3,34.8,96,89,67,29.98,29.79,21,8,42,0.04
2013-5-12,44.1,39.4,36.3,36.5,31.1,28.2,93,72,54,30.16,29.97,14,9,29,0.00
2013-5-13,51.7,43.1,34.4,34.2,29.4,24.9,88,61,38,30.24,30.10,11,4,23,0.00
2013-5-14,71.8,59.7,45.1,55.9,45.0,30.3,70,58,52,30.10,29.65,19,10,32,0.00
2013-5-15,75.4,68.8,61.6,61.5,51.7,43.1,73,55,39,29.83,29.57,18,9,35,0.00
2013-5-16,78.3,65.8,51.9,54.3,47.9,43.5,77,54,33,30.01,29.83,9,5,18,0.00
2013-5-17,68.6,60.2,51.4,51.0,45.9,41.1,70,60,43,30.12,30.01,20,12,26,0.00
2013-5-18,81.9,67.6,55.0,62.6,53.7,45.3,75,62,46,30.14,29.99,13,6,20,0.00
2013-5-19,85.7,73.8,59.0,65.7,58.6,47.2,76,60,48,30.00,29.82,12,7,21,0.00
2013-5-20,85.7,76.8,67.8,71.5,65.3,60.2,88,69,44,29.86,29.73,23,11,39,0.05
2013-5-21,79.3,71.1,62.1,67.2,64.3,60.6,97,80,63,29.77,29.69,23,10,47,0.41
2013-5-22,70.0,63.9,55.8,65.6,61.9,55.0,97,93,82,29.72,29.63,13,7,30,0.52
2013-5-23,55.7,49.6,42.6,54.9,47.8,36.2,99,93,77,30.25,29.71,13,7,28,0.29
2013-5-24,55.1,45.8,35.4,45.9,39.0,33.3,93,78,64,30.43,30.26,9,5,18,0.00
2013-5-25,65.7,53.1,41.2,44.5,41.0,38.6,93,67,41,30.44,30.32,9,3,15,0.00
2013-5-26,69.7,58.3,45.9,46.4,41.9,38.5,80,56,37,30.36,30.22,10,6,15,0.00
2013-5-27,57.1,52.8,50.5,50.4,45.5,39.9,96,78,55,30.23,29.96,16,10,27,0.04
2013-5-28,73.7,62.4,51.5,68.4,60.7,50.4,99,94,80,29.97,29.78,18,10,32,0.88
2013-5-29,79.6,68.9,62.2,68.7,64.6,59.8,96,87,65,29.99,29.77,18,8,32,0.12
2013-5-30,84.1,76.1,68.5,72.3,67.6,63.1,90,75,60,29.98,29.86,18,10,32,0.00
2013-5-31,77.4,71.8,64.8,68.1,65.9,63.3,95,82,68,29.91,29.78,18,11,44,0.31
2013-6-1,76.1,69.5,62.2,66.7,63.8,60.8,96,83,64,29.79,29.67,21,11,37,0.70
2013-6-2,62.0,53.7,46.5,60.8,49.7,41.2,97,87,72,30.05,29.65,14,7,25,0.05
2013-6-3,62.8,53.4,43.0,48.1,43.6,40.3,93,71,53,30.14,30.04,9,3,20,0.00
2013-6-4,74.1,60.9,48.8,55.0,48.7,43.5,84,66,48,30.21,30.13,11,5,15,0.00
2013-6-5,69.2,60.8,56.5,51.5,46.6,40.9,79,61,36,30.16,30.01,16,8,24,0.00
2013-6-6,61.8,57.2,53.3,54.6,51.7,49.0,92,82,71,30.02,29.92,14,8,23,0.13
2013-6-7,72.9,60.9,50.0,52.1,49.2,47.0,92,67,45,29.97,29.88,11,6,21,0.00
2013-6-8,72.5,63.7,52.5,56.5,51.2,46.8,91,66,42,30.05,29.92,8,4,14,0.00
2013-6-9,79.5,68.4,58.2,64.8,59.5,52.3,94,74,57,30.05,29.89,16,8,30,0.74
2013-6-10,70.8,65.7,61.7,67.0,63.2,58.9,98,92,74,29.90,29.75,12,6,20,0.28
2013-6-11,78.0,66.5,55.7,68.9,62.0,55.1,99,86,70,29.94,29.83,12,5,22,0.00
2013-6-12,78.9,70.4,63.8,71.1,65.6,61.6,97,85,72,29.94,29.62,13,5,23,1.49
2013-6-13,74.4,66.0,59.2,63.4,59.6,55.7,98,81,58,29.99,29.62,16,8,35,0.30
2013-6-14,78.2,64.7,54.1,60.5,55.2,51.8,93,73,47,30.13,29.99,8,4,16,0.00
2013-6-15,73.2,65.6,58.1,63.6,58.9,51.2,91,79,65,30.07,29.88,13,5,25,0.00
2013-6-16,76.6,68.5,62.5,65.5,62.9,59.5,97,83,60,29.90,29.80,14,8,33,0.43
2013-6-17,81.6,71.9,60.4,65.3,60.3,56.9,94,69,46,29.93,29.86,11,6,23,0.00
2013-6-18,69.8,63.2,56.4,59.4,52.7,44.5,93,71,43,30.10,29.92,14,8,24,0.00
2013-6-19,73.0,58.4,49.7,49.1,45.4,42.9,78,63,40,30.19,30.10,11,7,16,0.00
2013-6-28,76.5,69.6,62.9,67.2,64.4,62.3,98,85,69,29.66,29.57,13,4,24,0.04
2013-6-29,72.4,66.6,61.8,65.0,62.4,59.9,98,87,76,29.77,29.57,12,5,20,0.01
2013-6-30,78.2,70.2,62.2,64.1,59.3,48.7,92,70,50,29.99,29.76,11,6,22,0.00
2013-7-1,75.1,66.4,57.1,55.1,50.5,44.3,77,57,45,30.11,29.99,18,10,29,0.00
2013-7-2,63.9,60.4,55.4,60.7,54.5,42.8,95,82,48,30.11,30.05,12,6,20,0.29
2013-7-3,79.6,67.2,59.0,67.6,61.8,54.0,94,83,64,30.09,30.03,10,6,20,0.00
2013-7-4,77.3,69.7,62.6,65.5,63.0,59.7,98,81,56,30.13,30.07,10,5,19,0.00
2013-7-5,87.1,74.5,64.8,67.8,64.1,60.8,91,72,47,30.12,30.03,7,4,14,0.00
2013-7-6,85.6,75.5,68.4,70.8,67.5,64.0,91,77,58,30.08,29.98,8,4,13,0.00
2013-7-7,82.8,74.6,68.7,72.5,69.3,67.2,97,84,67,30.02,29.95,10,6,19,0.00
2013-7-8,77.5,73.9,71.1,72.5,70.5,68.8,97,89,81,30.02,29.95,16,8,27,0.02
2013-7-9,84.4,73.6,66.6,76.9,70.7,66.1,99,91,72,30.00,29.85,14,4,33,0.13
2013-7-10,78.6,74.1,65.5,74.9,67.0,56.4,98,80,59,29.98,29.81,13,7,26,0.00
2013-7-11,79.3,69.7,59.1,62.3,58.0,52.9,92,68,44,30.08,29.98,9,3,21,0.00
2013-7-12,82.1,71.0,57.5,61.1,58.0,54.9,92,66,42,30.17,30.07,10,5,16,0.00
2013-7-13,86.8,75.2,62.6,64.1,61.1,58.5,89,63,44,30.19,30.13,10,5,19,0.00
2013-7-14,93.1,79.4,65.0,71.4,67.5,61.2,92,69,49,30.24,30.18,9,4,16,0.00
2013-7-15,96.1,82.6,73.2,77.2,73.1,69.4,92,74,48,30.27,30.21,6,3,15,0.00
2013-7-16,88.2,81.3,74.6,76.4,73.9,71.5,96,79,62,30.30,30.24,10,5,19,0.00
2013-7-17,89.6,82.1,75.8,77.7,74.5,72.0,92,79,61,30.28,30.16,11,6,21,0.00
2013-7-18,90.4,83.1,75.3,77.5,74.2,72.0,92,75,61,30.16,29.92,13,7,26,0.00
2013-7-19,90.1,82.7,77.1,74.7,73.5,68.4,90,75,58,29.93,29.70,27,12,44,0.01
2013-7-20,83.7,76.6,68.4,71.3,63.9,57.4,90,66,48,29.94,29.73,9,4,18,0.00
2013-7-21,86.3,71.0,60.0,67.8,59.8,50.9,95,69,51,30.01,29.90,15,6,26,0.29
2013-7-22,84.7,73.4,64.7,70.2,66.7,62.8,96,81,58,29.95,29.74,12,7,20,0.06
2013-7-23,76.6,69.9,56.6,71.3,62.8,49.4,95,79,60,29.95,29.66,15,8,28,0.01
2013-7-24,74.5,61.2,49.4,54.9,50.3,47.2,92,69,45,30.07,29.95,8,3,16,0.00
2013-7-25,77.4,66.0,55.1,58.9,54.5,49.8,89,68,46,30.12,30.06,9,5,21,0.00
2013-7-26,73.4,65.2,60.2,62.5,58.8,51.6,96,80,67,30.07,29.88,13,7,24,0.36
2013-7-27,67.0,60.7,55.0,61.8,57.1,50.2,98,88,75,29.89,29.83,11,5,27,0.00
2013-7-28,62.4,56.2,52.7,55.8,53.0,50.3,97,90,72,29.98,29.82,12,6,25,0.70
2013-7-29,66.9,59.7,55.2,57.2,55.3,53.6,97,86,69,30.22,29.97,11,4,20,0.09
2013-7-30,81.0,67.1,53.5,62.4,58.0,51.6,96,75,52,30.25,30.12,7,3,12,0.08
2013-7-31,70.7,65.0,62.1,67.0,62.8,59.7,97,93,86,30.11,29.93,8,4,13,0.15
2013-8-1,74.3,67.0,61.3,65.6,60.4,54.8,99,81,52,29.96,29.92,13,5,26,0.01
2013-8-2,71.4,64.9,59.3,66.4,61.4,55.5,96,88,84,29.95,29.85,13,6,25,0.03
2013-8-3,73.9,67.1,60.7,63.4,58.6,53.5,97,76,52,30.10,29.92,10,4,22,0.01
2013-8-4,71.3,63.0,54.6,58.2,53.9,48.9,94,73,51,30.22,30.10,8,3,15,0.00
2013-8-5,70.1,62.3,55.3,61.6,56.2,52.1,92,81,66,30.14,29.94,9,4,14,0.00
2013-8-6,76.2,68.1,62.9,69.6,65.2,61.0,95,90,79,29.94,29.86,10,7,18,0.00
2013-8-7,79.4,70.9,62.6,73.4,67.3,61.1,97,88,78,29.94,29.80,13,7,23,0.35
2013-8-8,77.7,67.6,58.2,62.2,56.8,53.7,94,71,46,30.05,29.94,9,4,15,0.00
2013-8-9,77.1,69.4,62.6,64.3,58.4,50.1,79,68,55,30.03,29.97,10,4,20,0.00
2013-8-10,79.4,69.2,60.5,62.3,58.0,54.9,90,69,46,30.15,30.03,9,4,14,0.00
2013-8-11,75.6,67.5,60.9,59.5,57.3,55.0,86,70,54,30.14,30.06,8,2,14,0.00
2013-8-12,73.1,66.4,63.2,68.9,64.0,57.7,98,92,76,30.06,29.87,8,4,14,1.28
2013-8-13,64.9,58.8,51.8,62.3,51.4,46.3,95,77,59,30.14,29.91,12,6,25,0.00
2013-8-14,69.1,57.4,47.2,55.0,49.4,44.6,92,76,53,30.24,30.14,9,2,16,0.00
2013-8-15,73.7,62.4,51.8,60.1,54.0,49.5,94,76,46,30.19,30.11,11,5,23,0.00
2013-8-16,80.8,68.0,57.2,62.3,58.2,55.2,96,73,46,30.21,30.14,6,3,13,0.00
2013-8-17,83.2,71.5,57.9,63.1,58.1,55.2,93,65,41,30.26,30.18,6,3,14,0.00
2013-8-18,85.1,72.1,63.2,62.5,58.8,55.1,76,64,43,30.23,30.11,6,3,13,0.00
2013-8-19,79.6,70.7,61.7,64.0,60.0,56.8,86,70,54,30.13,30.05,9,5,20,0.00
2013-8-20,81.8,73.3,64.5,69.2,64.9,59.6,90,76,60,30.13,30.06,11,7,20,0.00
2013-8-21,84.5,75.6,67.5,70.4,66.8,63.8,89,75,56,30.10,29.96,12,8,23,0.00
2013-8-22,76.4,68.7,63.6,70.1,66.6,62.7,98,93,77,30.09,29.96,14,3,37,0.14
2013-8-23,83.1,69.7,59.7,65.8,57.1,53.2,97,67,39,30.21,30.10,7,4,13,0.00
2013-8-24,84.0,71.1,59.4,63.0,58.9,55.8,88,67,45,30.30,30.19,9,6,18,0.00
2013-8-25,83.9,72.9,60.7,68.5,63.3,57.2,89,73,58,30.27,30.13,15,10,27,0.00
2013-8-26,82.2,75.1,69.5,73.1,68.3,64.5,86,80,74,30.15,29.97,15,8,25,0.00
2013-8-27,88.0,79.8,72.4,76.5,73.1,71.2,98,81,62,29.99,29.79,19,10,33,0.08
2013-8-28,83.9,75.6,71.3,73.7,71.7,69.4,99,88,67,30.02,29.78,13,4,25,0.16
2013-8-29,89.3,77.3,67.1,71.5,69.0,65.5,95,78,51,30.09,29.99,7,2,13,0.00
2013-8-30,86.8,76.0,68.5,73.8,69.8,66.4,94,82,63,30.00,29.74,16,8,29,0.03
2013-8-31,81.8,70.9,63.5,68.1,65.3,62.6,98,84,63,29.87,29.80,8,4,14,0.00
2013-9-1,81.5,71.4,64.1,72.3,67.6,62.6,97,88,71,29.85,29.72,9,5,19,0.00
2013-9-2,69.9,63.9,58.7,67.8,58.9,51.8,98,84,69,29.98,29.75,13,6,23,0.01
2013-9-3,71.0,62.2,54.2,57.9,54.9,51.0,90,78,62,30.08,29.98,9,5,21,0.00
2013-9-4,76.4,65.9,57.1,64.2,59.7,55.6,96,82,58,30.13,30.04,12,7,21,0.00
2013-9-5,72.0,63.0,53.2,60.9,49.9,43.1,92,65,39,30.28,30.13,8,4,16,0.00
2013-9-6,79.8,65.1,50.4,58.5,52.5,46.6,91,66,42,30.27,30.04,10,6,19,0.00
2013-9-7,80.4,71.0,66.2,69.1,63.8,57.3,87,78,67,30.04,29.91,12,7,21,0.00
2013-9-8,76.8,68.4,64.2,65.0,61.8,57.1,98,81,55,30.08,29.95,14,8,25,0.00
2013-9-9,84.8,71.3,59.9,74.0,66.1,56.7,98,85,67,30.04,29.83,15,8,24,1.26
2013-9-10,90.2,82.1,75.1,73.8,69.5,66.5,84,67,49,29.98,29.84,17,11,41,0.01
2013-9-11,85.3,75.9,69.1,71.8,67.8,63.4,92,77,51,30.03,29.95,12,6,27,0.01
2013-9-12,73.5,66.4,55.2,66.6,58.4,48.9,98,77,53,30.06,29.91,12,6,24,0.01
2013-9-13,62.2,53.9,46.7,49.1,44.0,39.4,91,71,44,30.17,30.06,10,5,21,0.00
2013-9-14,66.1,55.1,44.0,54.2,46.6,41.0,90,74,54,30.22,30.08,11,6,24,0.00
2013-9-15,57.3,55.3,52.4,55.6,50.6,43.2,97,85,63,30.18,30.06,10,5,16,0.09
2013-9-16,60.0,53.5,47.4,54.5,48.3,43.4,100,83,63,30.40,30.18,9,5,18,0.00
2013-9-17,68.1,54.2,40.5,51.5,46.0,38.7,95,76,50,30.43,30.21,9,5,15,0.00
2013-9-18,77.8,64.3,53.5,60.6,54.7,48.5,89,73,54,30.21,29.98,11,8,21,0.00
2013-9-19,73.5,67.8,64.3,68.4,64.4,57.1,97,89,75,30.00,29.82,14,9,30,0.52
2013-9-20,71.9,68.6,61.4,70.1,65.8,57.5,96,91,84,29.85,29.74,12,8,27,0.04
2013-9-21,61.6,57.7,52.1,57.5,51.7,47.1,93,81,64,29.94,29.73,12,7,26,0.00
2013-9-22,53.8,50.7,46.8,47.5,44.8,42.9,93,80,69,30.11,29.94,8,3,16,0.00
2013-9-23,63.0,51.7,40.7,48.9,44.2,38.8,94,77,59,30.20,30.11,10,5,25,0.00
2013-9-24,67.0,55.7,44.5,52.4,47.6,42.1,93,76,56,30.16,30.00,10,6,19,0.00
2013-9-25,70.4,57.9,46.7,52.9,49.6,45.3,96,76,51,30.04,29.98,10,6,18,0.00
2013-9-26,73.9,60.4,47.0,53.6,50.1,45.4,96,72,43,30.14,30.01,9,6,15,0.00
2013-9-27,77.9,64.9,53.5,56.3,52.7,47.1,86,66,42,30.23,30.13,10,7,18,0.00
2013-9-28,78.6,65.6,52.6,59.7,55.0,51.5,96,71,46,30.16,29.94,13,10,24,0.00
2013-9-29,71.7,61.8,54.0,62.0,54.1,49.6,96,77,59,30.03,29.92,13,5,25,0.33
2013-9-30,71.3,60.2,50.7,55.6,51.7,47.3,89,75,52,30.02,29.92,9,5,15,0.00
2013-10-1,71.4,63.1,55.7,65.0,59.8,52.1,97,89,80,29.98,29.91,16,10,28,0.00
2013-10-2,76.7,66.9,59.2,62.7,52.1,43.6,93,63,35,30.12,29.94,8,3,13,0.00
2013-10-3,75.9,64.9,58.7,68.6,56.1,44.4,93,74,57,30.05,29.92,13,8,25,0.01
2013-10-4,77.4,68.7,64.2,68.3,65.2,62.7,96,89,73,30.00,29.91,11,6,25,0.17
2013-10-5,75.4,68.4,64.2,70.9,66.6,63.6,99,94,84,30.00,29.79,14,8,23,0.55
2013-10-6,68.7,58.8,51.3,66.6,56.1,46.7,98,91,71,29.80,29.69,13,7,24,0.35
2013-10-7,59.0,52.0,46.2,51.8,47.2,43.9,96,84,67,30.12,29.71,11,7,26,0.18
2013-10-8,71.7,58.0,46.1,54.9,48.6,42.7,89,72,52,30.25,30.12,13,8,21,0.00
2013-10-9,71.1,59.1,48.3,52.3,47.6,44.1,88,67,45,30.31,30.20,11,7,16,0.00
2013-10-10,75.1,60.6,49.0,54.6,48.8,45.1,89,67,42,30.22,30.11,8,5,15,0.00
2013-10-11,73.3,60.2,50.4,51.8,46.5,40.1,78,62,34,30.15,30.05,9,6,15,0.00
2013-10-12,76.1,63.1,52.8,61.6,54.2,44.3,96,74,52,30.12,30.00,13,9,24,0.17
2013-10-13,59.5,54.2,47.9,55.8,46.9,43.6,93,77,62,30.41,30.12,10,3,22,0.00
2013-10-14,53.1,46.4,42.5,44.4,42.2,40.1,92,85,69,30.46,30.41,11,6,18,0.00
2013-10-15,62.8,53.8,44.0,60.1,50.7,41.3,97,89,78,30.26,29.81,13,10,23,0.24
2013-10-16,60.0,51.8,50.4,58.9,49.0,46.1,97,90,82,29.91,29.81,13,8,25,0.32
2013-10-17,50.8,48.4,45.1,50.3,47.4,43.1,98,96,89,29.91,29.76,13,5,33,0.53
2013-10-18,57.5,47.7,41.5,50.4,43.6,39.3,94,86,74,29.93,29.86,18,8,30,0.01
2013-10-19,51.7,44.8,40.6,43.5,39.8,35.1,92,83,55,29.91,29.77,13,5,30,0.23
2013-10-20,55.8,48.5,40.6,49.9,41.7,36.6,91,78,57,29.92,29.75,20,7,39,0.11
2013-10-21,53.2,46.4,39.2,49.9,40.8,28.1,96,81,64,29.92,29.79,14,9,30,0.14
2013-10-22,46.6,40.3,35.0,35.9,32.0,27.2,91,72,62,29.95,29.91,12,8,25,0.01
2013-10-23,40.5,35.5,32.1,37.2,33.2,30.8,96,91,74,30.01,29.89,10,4,23,0.06
2013-10-24,41.6,35.2,32.3,38.3,32.8,30.9,96,91,74,30.26,30.00,10,3,22,0.28
2013-10-25,45.0,38.2,33.5,37.2,33.0,30.0,95,83,57,30.38,30.19,14,7,28,0.01
2013-10-26,50.9,46.9,42.4,41.8,36.9,33.6,76,68,58,30.05,29.79,28,14,53,0.02
2013-10-27,50.3,43.4,37.2,37.2,34.1,30.6,81,70,57,30.07,30.00,16,7,31,0.00
2013-10-28,47.3,42.9,38.6,38.6,36.1,32.3,87,77,69,30.43,30.05,13,6,23,0.00
2013-10-29,51.2,42.1,37.7,41.8,34.5,30.0,87,75,68,30.46,30.24,12,8,19,0.00
2013-10-30,63.2,50.5,38.3,54.9,45.2,34.9,96,83,61,30.26,29.90,14,7,22,0.30
2013-10-31,61.6,58.8,55.5,61.0,58.1,54.7,100,98,96,29.93,29.11,22,11,36,1.00
2013-11-1,55.2,46.2,43.7,54.6,44.1,40.9,98,92,84,29.69,29.17,21,11,42,0.53
2013-11-2,47.1,43.9,40.8,44.1,40.1,36.4,97,87,70,30.13,29.69,9,4,18,0.08
2013-11-3,49.4,41.2,35.0,38.9,35.0,32.4,94,80,58,30.41,30.13,10,6,16,0.04
2013-11-4,51.3,43.9,37.6,41.6,35.6,32.8,88,73,58,30.42,30.24,19,12,33,0.00
2013-11-5,55.7,50.3,48.4,47.9,44.1,41.8,84,79,74,30.33,30.25,13,8,25,0.00
2013-11-6,55.2,48.7,39.6,54.0,46.9,38.0,97,94,73,30.07,29.76,23,12,41,1.13
2013-11-7,41.1,37.2,33.1,37.8,31.9,29.2,94,81,69,30.20,30.06,12,7,26,0.04
2013-11-8,42.9,37.7,33.4,33.4,31.1,28.4,95,77,61,30.34,30.11,12,4,21,0.00
2013-11-9,50.3,46.6,40.3,44.1,38.3,32.4,83,73,64,30.11,29.84,22,14,41,0.00
2013-11-10,45.2,40.8,36.8,33.9,32.1,29.8,80,71,62,30.31,29.98,16,10,34,0.00
2013-11-11,45.0,35.6,25.6,38.4,31.0,20.6,95,84,73,30.44,30.08,16,9,29,0.20
2013-11-12,33.1,27.2,22.8,24.4,20.7,18.6,91,77,59,30.65,30.44,15,6,27,0.00
2013-11-13,38.7,31.7,25.7,26.6,23.3,20.3,85,71,56,30.59,30.19,23,13,41,0.00
2013-11-14,45.5,38.9,31.4,33.3,28.7,24.2,77,67,53,30.19,29.99,22,14,37,0.00
2013-11-15,47.4,42.3,37.7,35.9,32.4,29.1,76,68,58,30.04,29.98,15,10,27,0.00
2013-11-16,55.2,47.4,37.5,54.1,43.2,31.9,96,86,75,30.04,29.68,25,14,41,0.41
2013-11-17,63.0,55.0,42.2,60.6,53.3,39.5,96,94,83,29.68,29.18,37,18,68,0.94
2013-11-18,44.4,37.1,33.6,38.7,30.4,25.3,82,77,69,30.22,29.57,25,14,49,0.00
2013-11-19,41.8,34.5,29.3,27.0,24.7,23.1,78,67,53,30.42,30.22,11,5,19,0.00
2013-11-20,43.0,35.6,29.1,33.6,27.0,23.9,83,71,51,30.41,30.22,17,11,29,0.01
2013-11-21,49.7,44.0,37.5,43.4,39.8,33.6,96,85,77,30.27,30.19,13,7,20,0.12
2013-11-22,44.5,36.0,27.5,43.7,32.6,23.6,97,88,74,30.45,30.18,16,8,28,0.01
2013-11-23,30.5,23.4,16.9,25.2,16.4,9.2,90,75,58,30.64,30.35,23,13,38,0.00
2013-11-24,23.5,19.2,15.4,18.4,12.9,8.0,89,77,59,30.69,30.42,15,8,27,0.00
2013-11-25,33.3,25.8,20.0,30.2,20.0,9.5,94,79,61,30.42,30.10,19,14,36,0.00
2013-11-26,33.2,29.8,23.9,29.4,25.4,16.2,89,83,70,30.11,30.00,14,9,27,0.00
2013-11-27,27.3,22.8,20.0,19.8,15.7,12.2,86,74,61,30.28,30.08,16,8,27,0.00
2013-11-28,26.2,23.5,20.7,22.5,18.5,15.2,92,81,69,30.50,30.26,12,5,23,0.00
2013-11-29,32.6,26.7,22.7,24.6,21.9,20.2,98,82,68,30.70,30.50,9,4,15,0.00
2013-11-30,30.3,29.4,28.4,23.3,22.5,21.5,78,75,73,30.53,30.39,14,10,24,0.00
2013-12-1,40.6,36.9,33.5,34.3,30.7,26.0,92,78,65,30.12,30.04,10,4,20,0.00
2013-12-2,39.6,33.4,29.3,31.5,27.9,23.8,94,81,64,30.04,29.90,12,6,18,0.00
2013-12-3,35.8,33.1,30.0,35.0,30.6,23.9,97,91,73,29.92,29.81,16,12,25,0.37
2013-12-4,56.5,44.8,35.8,55.6,44.1,35.0,100,97,88,29.86,29.57,21,12,39,0.03
2013-12-5,54.1,34.3,26.4,51.0,29.1,20.2,90,81,74,30.21,29.58,23,14,42,0.00
2013-12-6,26.3,21.6,18.5,20.1,17.1,15.0,89,83,76,30.49,30.21,10,6,19,0.00
2013-12-7,18.9,16.6,12.6,16.2,13.6,9.9,90,87,82,30.69,30.49,8,4,14,0.00
2013-12-8,19.9,16.7,12.6,18.0,13.5,9.8,92,87,76,30.65,30.03,18,10,25,0.00
2013-12-9,27.7,22.6,15.7,26.2,18.3,9.2,94,83,72,30.18,29.92,22,13,39,0.00
2013-12-10,21.8,16.4,9.5,17.5,11.6,2.0,92,81,69,30.26,29.98,18,12,33,0.00
2013-12-11,19.8,15.9,11.3,17.3,12.9,8.6,92,88,78,30.52,30.27,14,8,24,0.00
2013-12-12,24.1,16.1,10.5,20.7,13.0,6.4,90,87,81,30.50,30.24,17,10,31,0.00
2013-12-13,26.3,24.1,20.3,22.0,19.8,16.2,88,84,78,30.29,30.20,17,7,26,0.00
2013-12-14,20.1,18.2,15.8,18.5,15.7,12.6,100,90,83,30.27,29.96,24,13,32,0.00
2013-12-15,23.6,18.3,14.3,21.9,14.8,9.9,93,86,75,30.11,29.89,15,8,28,0.00
2013-12-16,21.0,15.4,10.9,14.0,11.1,8.1,90,83,69,30.23,30.06,11,5,18,0.00
2013-12-17,30.5,25.4,16.2,28.1,22.8,13.8,95,90,77,30.06,29.91,18,9,29,0.00
2013-12-18,32.8,27.1,23.9,24.8,19.6,14.3,82,73,60,30.17,29.87,18,11,34,0.00
2013-12-19,38.1,34.9,30.5,35.3,31.7,25.3,95,88,73,30.00,29.85,19,9,31,0.00
2013-12-20,32.0,30.9,29.3,31.0,29.9,28.3,96,96,95,29.89,29.79,13,1,19,0.09
2013-12-21,31.8,30.8,29.4,31.0,30.0,27.9,97,97,94,29.90,29.72,0,0,0,0.01
2013-12-22,30.8,29.3,25.7,29.5,28.0,24.5,96,95,94,30.06,29.59,0,0,0,0.00
2013-12-23,26.3,22.4,15.8,24.5,20.5,13.8,95,92,91,30.37,30.06,0,0,0,0.00
2013-12-24,21.6,15.0,10.5,19.1,12.7,7.9,92,91,88,30.55,30.36,0,0,0,0.01
2013-12-25,24.2,19.2,10.8,22.7,17.2,8.4,94,92,89,30.50,30.11,0,0,0,0.00
2013-12-26,26.8,23.7,20.8,25.6,21.7,18.1,95,92,86,30.29,30.08,0,0,0,0.00
2013-12-27,39.7,32.0,26.4,33.5,29.2,25.2,95,90,75,30.33,30.07,23,6,39,0.26
2013-12-28,46.4,39.7,33.0,35.9,33.7,31.3,95,80,64,30.11,29.86,22,12,37,0.05
2013-12-29,41.9,30.3,17.5,33.5,25.0,10.9,94,81,69,30.12,29.76,18,13,29,0.00
2013-12-30,17.4,15.3,13.5,12.8,10.2,5.9,89,80,71,30.33,30.12,12,6,21,0.00
2013-12-31,16.9,14.6,12.8,13.8,11.8,10.2,91,88,82,30.40,30.16,13,6,25,0.00
2014-1-1,13.1,10.5,9.7,10.5,6.3,3.5,89,83,74,30.45,30.32,14,9,21,0.00
2014-1-2,12.3,10.0,3.0,8.7,4.1,-3.2,86,77,63,30.43,30.25,16,10,26,0.00